Location: Baili�vre
(50.0696°N, 4.2409°E)
Time: 14:40:45
(UTC+00:00)

Cosmos 2123 Rocket - Pass Details

Date: 08 August 2020
Orbit: 962 x 991 km, 82.9° (Epoch: 18 September)

Event Time Altitude Azimuth Distance (km) Brightness Sun altitude
Rises 20:03:25 0° 353° (N) 3,666 7.7 -7.7°
Reaches altitude 10° 20:06:01 10° 358° (N) 2,718 6.9 -8.0°
Maximum altitude 20:12:03 51° 74° (ENE) 1,213 4.3 -8.8°
Drops below altitude 10° 20:18:05 10° 150° (SSE) 2,718 5.7 -9.5°
Enters shadow 20:18:12 10° 150° (SSE) 2,758 5.8 -9.6°
